Location: *
(44.1392°N, 4.8079°E)
Time: 08:21:44
(UTC+00:00)

Cosmos 2098 Rocket - Pass Details

Date: 21 June 2021
Orbit: 366 x 1176 km, 82.9° (Epoch: 31 July)

Event Time Altitude Azimuth Distance (km) Brightness Sun altitude
Exits shadow 00:39:03 39° 155° (SSE) 1,155 4.0 -21.2°
Maximum altitude 00:40:48 60° 95° (E) 841 3.7 -21.1°
Drops below altitude 10° 00:45:12 10° 16° (NNE) 2,005 6.9 -20.9°
Sets 00:47:11 0° 13° (NNE) 2,801 8.0 -20.8°
